Regional Weather Roundup
Issued by NWS

Home | Current Version | Previous Version | Text Only | Print | Product List | Glossary On
Versions: 1 2 3 4 5 6 7 8 9 10 11 12 13 14 15 16 17 18 19 20 21 22 23 24 25 26 27 28 29 30 31 32 33 34 35 36 37 38 39 40 41 42 43 44 45 46 47 48 49 50
000
ASUS44 KBMX 280310
RWRAL

ALABAMA REGIONAL WEATHER ROUNDUP
NATIONAL WEATHER SERVICE BIRMINGHAM AL
1000 PM CDT WED JUL 27 2016

NOTE: "FAIR" INDICATES FEW OR NO CLOUDS BELOW 12,000 FEET
WITH NO SIGNIFICANT WEATHER AND/OR OBSTRUCTIONS TO VISIBILITY.

THE REMARK "TC" DENOTES TEMPERATURE IN DEGREES CELSIUS.

ALZ001>011-014-016>018-020-280400-
NORTH ALABAMA

CITY           SKY/WX    TMP DP  RH WIND       PRES   REMARKS
MUSCLE SHOALS  PTCLDY    78  72  81 S3        29.98R
HUNTSVILLE     PTCLDY    79  70  74 S6        30.00R
DECATUR        CLEAR     78  72  81 S7        30.00R
HALEYVILLE     FAIR      76  73  91 S9        30.02R
GADSDEN        MOCLDY    75  73  93 CALM        N/A
$$

ALZ012-013-022-023-030>036-040>044-280400-
WEST CENTRAL ALABAMA

CITY           SKY/WX    TMP DP  RH WIND       PRES   REMARKS
TUSCALOOSA     PTCLDY    77  75  93 SW6       29.99R
$$

ALZ015-024>027-033>036-040>044-280400-
CENTRAL ALABAMA

CITY           SKY/WX    TMP DP  RH WIND       PRES   REMARKS
BIRMINGHAM     PTCLDY    81  72  74 S7        30.03R
MONTGOMERY     MOCLDY    79  68  69 S6        30.03S
SHELBY CO ARPT PTCLDY    78  71  79 VRB7      30.02R
MAXWELL AFB    MOCLDY    79  70  74 SW5       30.02S
GREENVILLE     FAIR      75  70  84 CALM      30.05R
$$

ALZ019-021-028-029-037-038-045>048-280400-
EAST CENTRAL ALABAMA

CITY           SKY/WX    TMP DP  RH WIND       PRES   REMARKS
ANNISTON       CLEAR     77  72  84 CALM      30.03R
ALEXANDER CITY CLEAR     78  75  92 SW5       30.05R
AUBURN         PTCLDY    79  72  79 SW8       30.07R
$$

ALZ051>064-280400-
SOUTHWEST ALABAMA

CITY           SKY/WX    TMP DP  RH WIND       PRES   REMARKS
MOBILE         PTCLDY    78  73  84 S6        30.04R
BROOKLEY FIELD CLEAR     78  76  93 S3        30.04S
EVERGREEN      CLEAR     75  73  93 CALM      30.05R
$$

ALZ049-050-065>069-280400-
SOUTHEAST ALABAMA

CITY           SKY/WX    TMP DP  RH WIND       PRES   REMARKS
DOTHAN         CLEAR     81  73  76 SW7       30.09R
OZARK          CLEAR     80  74  83 SW5       30.05R
TROY           PTCLDY    77  73  87 SW3       30.07R
EUFAULA        MOCLDY    80  73  79 CALM      30.03R
$$



USA.gov is the U.S. government's official web portal to all federal, state and local government web resources and services.